This is the latest recevied weather packets stored in our database for station/object KI5NXU. If no packets are shown the sender has not sent any weather packets the latest 10 day(s).
| Time | Temp. | Humidity | Pressure | Rain* | Wind** | Luminosity | Snow |
|---|---|---|---|---|---|---|---|
| 1777428631 | 22.78° C | 90% | 1010.5 hPa | 0 mm | - | 0 W/m² | - |
| 1777428327 | 22.78° C | 90% | 1010.4 hPa | 0 mm | - | 0 W/m² | - |
| 1777428022 | 22.78° C | 90% | 1010.3 hPa | 0 mm | - | 0 W/m² | - |
| 1777427719 | 22.78° C | 90% | 1010.4 hPa | 0 mm | - | 0 W/m² | - |
| 1777427417 | 22.78° C | 90% | 1010.3 hPa | 0 mm | - | 0 W/m² | - |
| 1777427112 | 22.78° C | 90% | 1010.2 hPa | 0 mm | - | 0 W/m² | - |
| 1777426810 | 22.78° C | 90% | 1010.4 hPa | 0 mm | - | 0 W/m² | - |
| 1777426507 | 22.78° C | 90% | 1010.1 hPa | 0 mm | - | 0 W/m² | - |
| 1777426202 | 22.78° C | 90% | 1010.2 hPa | 0 mm | - | 0 W/m² | - |
| 1777425897 | 22.78° C | 90% | 1010 hPa | 0 mm | - | 0 W/m² | - |
| 1777425593 | 22.78° C | 90% | 1010.2 hPa | 0 mm | - | 0 W/m² | - |
| 1777425289 | 22.78° C | 90% | 1010.2 hPa | 0 mm | - | 1 W/m² | - |
| 1777424987 | 23.33° C | 89% | 1009.9 hPa | 0 mm | - | 3 W/m² | - |
| 1777424681 | 23.33° C | 89% | 1010.2 hPa | 0 mm | - | 6 W/m² | - |
| 1777424376 | 23.89° C | 88% | 1010 hPa | 0 mm | - | 10 W/m² | - |
| 1777424072 | 23.89° C | 88% | 1010.2 hPa | 0 mm | - | 14 W/m² | - |
| 1777423770 | 23.89° C | 88% | 1010.3 hPa | 0 mm | - | 17 W/m² | - |
| 1777423466 | 24.44° C | 88% | 1010 hPa | 0 mm | - | 18 W/m² | - |
| 1777423161 | 25° C | 87% | 1010.1 hPa | 0 mm | - | 17 W/m² | - |
| 1777422855 | 25° C | 86% | 1009.9 hPa | 0 mm | - | 37 W/m² | - |
| 1777422551 | 25.56° C | 86% | 1010 hPa | 0 mm | - | 45 W/m² | - |
| 1777422247 | 25.56° C | 86% | 1009.8 hPa | 0 mm | - | 50 W/m² | - |
| 1777421941 | 25.56° C | 85% | 1009.8 hPa | 0 mm | - | 54 W/m² | - |
| 1777421637 | 26.11° C | 85% | 1009.8 hPa | 0 mm | - | 77 W/m² | - |
| 1777421331 | 26.11° C | 85% | 1009.8 hPa | 0 mm | - | 82 W/m² | - |
* Rain latest hour (hover to see other rain measurements)
** Current wind speed in m/s (hover to see current wind gust speed)